Terug naar catalogus

KUIPER-00262

ActiefCommunicatieLEO
NORAD 67788·PAYLOAD·🇺🇸 United States

Gelanceerd Feb 12, 2026 vanaf Guiana Space Centre

Loading…

Volgende Passages (komende 24 uur)

TLE

VersSource: CelesTrak SupGP

Epoch: Sep 14, 2026, 16:56 UTC

1 67788C 26030AA  26257.70569444 -.00001097  00000+0 -14360-3 0  2570
2 67788  51.8995  79.8036 0001147 109.7414 171.3844 14.79933175    15

Volg KUIPER-00262 in realtime met AllMySat

Download on the App Store